Cosmos 1437 - Orbit

View from above orbital plane
View from above orbital plane
View from above satellite
View from above satellite

Ground track
Ground track

The orbit data is extracted from the following two-line orbital elements,

1 13770U 83003A   13168.85074270  .00003860  00000-0  15485-3 0  3058
2 13770 081.1691 106.9130 0012121 278.6239 133.5146 15.24689099661964
Epoch (UTC): 17 June 2013 20:25:04
Eccentricity: 0.0012121
inclination: 81.1691°
perigee height: 483 km
apogee height: 500 km
right ascension of ascending node: 106.9130°
argument of perigee: 278.6239°
revolutions per day: 15.24689099
mean anomaly at epoch: 133.5146°
orbit number at epoch: 66196

The dashed part of the orbit path shows where the satellite is in the earth's shadow,  

Developed and maintained by Chris Peat, Heavens-Above GmbH. Please read the updated FAQ before sending e-mail. Imprint. DLR